CW5456 Hansville WA US current weather conditions

sailwx.info

Wind from 337 at 3 knots gusting 5

Air temperature 14.4° C
Dewpoint 12.1° C

Last reported at 2016-Sep-25 21:49 UTC.
Time now 2016-Sep-25 22:31 UTC

Location: N 47°55' W 122°35'.
View on Google Maps.

See reports from other nearby stations

  
Tides and Currents Weather Stations Pressure Air Temp Water Temp Dewpoint Dewpoint Depression Visibility Wind Speed Wind Dir Waves Ship Positions
date/time (UTC)wind fromknots sea level pressurealtimeterstation pressurevisibilityair tempwater tempwave heightnotes
2016-Sep-25 21:49 337 3 gusting 5 14.4
2016-Sep-25 21:40 232 2 gusting 5 15.0
2016-Sep-25 21:34 064 14.4
2016-Sep-25 21:25 310 5 gusting 8 14.4
2016-Sep-25 21:20 245 5 gusting 8 14.4
2016-Sep-25 21:15 347 6 gusting 8 14.4
2016-Sep-25 21:10 301 6 gusting 7 14.4
2016-Sep-25 21:05 327 5 gusting 6 14.4
2016-Sep-25 21:00 353 2 gusting 3 14.4
2016-Sep-25 20:55 271 0 gusting 6 13.9
2016-Sep-25 20:50 284 2 gusting 6 13.9
2016-Sep-25 20:45 287 4 gusting 6 14.4
2016-Sep-25 20:40 332 2 gusting 6 13.9
2016-Sep-25 20:35 219 2 gusting 6 13.9
2016-Sep-25 20:30 327 3 gusting 6 13.9
2016-Sep-25 20:25 270 3 gusting 6 14.4
2016-Sep-25 20:20 332 2 gusting 6 14.4
2016-Sep-25 20:15 242 1 gusting 6 13.9
2016-Sep-25 20:05 270 3 gusting 6 14.4
2016-Sep-25 20:00 290 4 gusting 6 14.4
2016-Sep-25 19:55 280 2 gusting 5 14.4
2016-Sep-25 19:50 301 1 gusting 5 14.4
2016-Sep-25 19:45 242 1 gusting 4 14.4
2016-Sep-25 19:40 230 1 gusting 3 14.4
2016-Sep-25 19:35 327 2 gusting 2 14.4
2016-Sep-25 19:30 278 2 gusting 5 13.9
2016-Sep-25 19:25 282 2 gusting 5 13.9
2016-Sep-25 19:20 327 3 gusting 4 13.9
2016-Sep-25 19:15 314 1 gusting 4 13.9
2016-Sep-25 19:10 332 2 gusting 4 13.9
2016-Sep-25 19:05 327 2 gusting 5 13.9
2016-Sep-25 19:00 312 2 gusting 5 13.9
2016-Sep-25 18:55 299 4 gusting 6 13.9
2016-Sep-25 18:50 293 2 gusting 6 13.9
2016-Sep-25 18:45 332 4 gusting 5 14.4
2016-Sep-25 18:40 263 3 gusting 4 14.4
2016-Sep-25 18:35 260 1 gusting 4 13.9
2016-Sep-25 18:30 258 2 gusting 4 13.9
2016-Sep-25 18:25 293 0 gusting 4 13.9
2016-Sep-25 18:20 269 1 gusting 5 13.9
2016-Sep-25 18:15 305 2 gusting 5 13.9
2016-Sep-25 18:10 233 13.9
2016-Sep-25 18:05 272 2 gusting 6 13.9
2016-Sep-25 18:00 281 3 gusting 6 13.3
2016-Sep-25 17:55 297 1 gusting 6 13.3
2016-Sep-25 17:50 280 3 gusting 6 13.3
2016-Sep-25 17:45 284 2 gusting 6 13.3
2016-Sep-25 17:40 278 4 gusting 6 13.3
2016-Sep-25 17:35 294 5 gusting 10 13.3
2016-Sep-25 17:30 296 5 gusting 10 13.3
2016-Sep-25 17:25 281 9 gusting 10 13.3
2016-Sep-25 17:20 244 5 gusting 7 13.9
2016-Sep-25 17:15 337 4 gusting 7 13.3
2016-Sep-25 17:10 235 5 gusting 6 13.9
2016-Sep-25 17:05 261 2 gusting 4 13.9
2016-Sep-25 17:00 258 1 gusting 4 13.9
2016-Sep-25 16:55 261 3 gusting 4 13.9
2016-Sep-25 16:50 289 2 gusting 3 13.9
2016-Sep-25 16:45 293 1 gusting 2 13.9
2016-Sep-25 16:40 293 1 gusting 4 13.9
2016-Sep-25 16:35 293 1 gusting 4 13.9
2016-Sep-25 16:10 346 2 gusting 3 13.9
2016-Sep-25 16:05 170 13.9
2016-Sep-25 15:55 170 13.9
2016-Sep-25 15:50 170 13.9
2016-Sep-25 15:45 170 13.9
2016-Sep-25 15:40 170 13.9
2016-Sep-25 15:35 170 13.3
2016-Sep-25 15:30 170 13.3
2016-Sep-25 15:25 170 13.3
2016-Sep-25 15:20 170 13.3
2016-Sep-25 15:15 170 13.3
2016-Sep-25 15:10 170 13.3
2016-Sep-25 15:05 170 13.3
2016-Sep-25 14:59 170 13.3
2016-Sep-25 14:54 170 0 gusting 1 13.3
2016-Sep-25 14:49 170 13.3
2016-Sep-25 14:44 170 13.3
2016-Sep-25 14:39 170 13.3
2016-Sep-25 14:34 170 13.3
2016-Sep-25 14:29 170 1 gusting 2 13.3
2016-Sep-25 14:24 239 13.3
2016-Sep-25 14:19 239 12.8
2016-Sep-25 14:14 239 12.8
2016-Sep-25 14:09 239 12.8
2016-Sep-25 14:04 239 12.8
2016-Sep-25 13:59 239 12.8
2016-Sep-25 13:54 239 13.3
2016-Sep-25 13:49 239 13.3
2016-Sep-25 13:44 239 13.3
2016-Sep-25 13:39 239 13.3
2016-Sep-25 13:34 239 13.3
2016-Sep-25 13:29 239 13.3
2016-Sep-25 13:24 239 13.3
2016-Sep-25 13:19 239 13.3
2016-Sep-25 13:14 239 13.3
2016-Sep-25 13:09 239 13.3
2016-Sep-25 13:04 239 13.3
2016-Sep-25 12:59 239 13.3
2016-Sep-25 12:54 239 13.3
2016-Sep-25 12:49 239 13.3
2016-Sep-25 12:44 239 13.3
2016-Sep-25 12:39 239 13.3
2016-Sep-25 12:34 270 13.3
2016-Sep-25 12:29 270 13.3
2016-Sep-25 12:24 271 12.8
2016-Sep-25 12:19 271 12.8
2016-Sep-25 12:14 271 12.8
2016-Sep-25 12:09 271 12.8
2016-Sep-25 12:04 271 12.8
2016-Sep-25 11:59 271 12.8
2016-Sep-25 11:54 271 12.8
2016-Sep-25 11:49 271 12.8
2016-Sep-25 11:44 271 12.8
2016-Sep-25 11:39 271 12.8
2016-Sep-25 11:34 271 12.8
2016-Sep-25 11:29 271 12.8
2016-Sep-25 11:24 271 12.8
2016-Sep-25 11:19 271 12.8
2016-Sep-25 11:14 271 12.8
2016-Sep-25 11:09 271 12.8
2016-Sep-25 11:04 271 12.8
2016-Sep-25 10:59 271 12.8
2016-Sep-25 10:54 271 12.8
2016-Sep-25 10:49 271 12.8
2016-Sep-25 10:44 271 12.8
2016-Sep-25 10:39 271 12.8
2016-Sep-25 10:34 271 12.8
2016-Sep-25 10:24 271 12.8
2016-Sep-25 10:19 271 12.8
2016-Sep-25 10:14 271 12.8
2016-Sep-25 10:09 271 12.8
2016-Sep-25 10:04 271 12.8
2016-Sep-25 09:59 270 12.8
2016-Sep-25 09:54 271 12.8
2016-Sep-25 09:49 270 12.8
2016-Sep-25 09:44 271 12.8
2016-Sep-25 09:39 271 12.8
2016-Sep-25 09:34 271 12.8
2016-Sep-25 09:29 270 12.8
2016-Sep-25 09:24 270 12.8
2016-Sep-25 09:19 270 12.8
2016-Sep-25 09:14 271 12.8
2016-Sep-25 09:09 271 12.8
2016-Sep-25 09:04 270 12.8
2016-Sep-25 08:59 271 12.8
2016-Sep-25 08:54 271 12.8
2016-Sep-25 08:49 270 2 gusting 2 12.8
2016-Sep-25 08:44 271 12.8
2016-Sep-25 08:39 270 12.8
2016-Sep-25 08:34 270 12.8
2016-Sep-25 08:29 270 12.8
2016-Sep-25 08:24 270 0 gusting 2 12.8
2016-Sep-25 08:14 270 1 gusting 6 12.8
2016-Sep-25 08:04 288 3 gusting 6 13.3
2016-Sep-25 07:59 258 6 gusting 6 13.3
2016-Sep-25 07:54 270 3 gusting 6 12.8
2016-Sep-25 07:49 243 3 gusting 6 12.8
2016-Sep-25 07:44 243 1 gusting 6 12.8
2016-Sep-25 07:39 253 3 gusting 6 12.8
2016-Sep-25 07:34 259 3 gusting 6 12.8
2016-Sep-25 07:29 289 12.8
2016-Sep-25 07:24 295 1 gusting 6 13.3
2016-Sep-25 07:19 248 2 gusting 6 13.3
2016-Sep-25 07:09 268 4 gusting 7 13.3
2016-Sep-25 07:04 258 6 gusting 7 13.3
2016-Sep-25 06:55 239 6 gusting 6 13.3
2016-Sep-25 06:50 260 3 gusting 6 13.3
2016-Sep-25 06:45 327 0 gusting 1 13.3
2016-Sep-25 06:40 327 13.3
2016-Sep-25 06:35 327 1 gusting 1 13.3
2016-Sep-25 06:30 262 13.3
2016-Sep-25 06:25 262 13.3
2016-Sep-25 06:20 262 13.3
2016-Sep-25 06:15 262 13.3
2016-Sep-25 06:10 262 13.3
2016-Sep-25 06:05 262 13.3
2016-Sep-25 06:00 262 13.3
2016-Sep-25 05:55 262 13.3
2016-Sep-25 05:50 262 13.3
2016-Sep-25 05:45 262 13.3
2016-Sep-25 05:40 262 13.3
2016-Sep-25 05:35 262 13.3
2016-Sep-25 05:30 261 2 gusting 7 13.3
2016-Sep-25 05:25 264 4 gusting 7 13.3
2016-Sep-25 05:20 283 4 gusting 6 13.3
2016-Sep-25 05:15 254 13.3
2016-Sep-25 05:10 253 13.3
2016-Sep-25 05:05 253 13.3
2016-Sep-25 05:00 254 13.3
2016-Sep-25 04:55 254 13.3
2016-Sep-25 04:50 253 13.3
2016-Sep-25 04:45 254 13.3
2016-Sep-25 04:40 346 3 gusting 4 13.3
2016-Sep-25 04:35 272 2 gusting 4 13.3
2016-Sep-25 04:30 278 2 gusting 4 13.3
2016-Sep-25 04:25 283 1 gusting 4 13.3
2016-Sep-25 04:20 272 2 gusting 3 13.3
2016-Sep-25 04:15 001 1 gusting 3 13.3
2016-Sep-25 04:10 001 13.3
2016-Sep-25 04:05 295 0 gusting 2 13.3
2016-Sep-25 04:00 296 13.3
2016-Sep-25 03:55 295 13.3
2016-Sep-25 03:50 295 13.3
2016-Sep-25 03:45 294 13.3
2016-Sep-25 03:40 305 13.9
2016-Sep-25 03:35 341 1 gusting 2 13.9
2016-Sep-25 03:30 341 0 gusting 3 13.9
2016-Sep-25 03:25 341 1 gusting 3 13.9
2016-Sep-25 03:20 341 0 gusting 3 13.9
2016-Sep-25 03:15 295 13.9
2016-Sep-25 03:10 310 3 gusting 3 13.9
2016-Sep-25 03:05 266 1 gusting 2 13.9
2016-Sep-25 03:00 266 1 gusting 5 14.4
2016-Sep-25 02:55 266 14.4
2016-Sep-25 02:50 245 5 gusting 5 14.4
2016-Sep-25 02:45 027 0 gusting 0 15.0
2016-Sep-25 02:40 027 15.0
2016-Sep-25 02:35 027 15.0
2016-Sep-25 02:30 027 15.0
2016-Sep-25 02:25 027 0 gusting 0 15.6
2016-Sep-25 02:20 027 15.6
2016-Sep-25 02:15 027 15.6
2016-Sep-25 02:10 027 15.6
2016-Sep-25 02:05 027 15.6
2016-Sep-25 02:00 027 15.6
2016-Sep-25 01:55 027 15.6
2016-Sep-25 01:50 027 15.6
2016-Sep-25 01:45 027 15.6
2016-Sep-25 01:40 027 15.6
2016-Sep-25 01:35 027 15.6
2016-Sep-25 01:30 027 15.6
2016-Sep-25 01:25 027 16.1
2016-Sep-25 01:20 027 16.1
2016-Sep-25 01:15 027 16.1
2016-Sep-25 01:10 027 16.1
2016-Sep-25 01:05 027 16.1
2016-Sep-25 01:00 027 16.1
2016-Sep-25 00:55 027 16.7
2016-Sep-25 00:50 027 16.1
2016-Sep-25 00:45 027 16.1
2016-Sep-25 00:40 027 16.1
2016-Sep-25 00:35 027 16.1
2016-Sep-25 00:30 027 16.1
2016-Sep-25 00:25 027 16.1
2016-Sep-25 00:20 027 16.1
2016-Sep-25 00:15 027 16.1
2016-Sep-25 00:10 027 16.1
2016-Sep-25 00:05 027 16.1
2016-Sep-25 00:00 027 16.1
2016-Sep-24 23:55 027 16.1
2016-Sep-24 23:50 028 16.1
2016-Sep-24 23:45 029 16.1
2016-Sep-24 23:40 029 16.1
2016-Sep-24 23:35 032 4 gusting 4 16.1
2016-Sep-24 23:30 041 16.1
2016-Sep-24 23:25 042 16.1
2016-Sep-24 23:20 010 0 gusting 2 15.6
2016-Sep-24 23:15 009 15.6
2016-Sep-24 23:10 349 16.1
2016-Sep-24 23:05 057 0 gusting 4 16.1
2016-Sep-24 23:00 039 1 gusting 2 16.1
2016-Sep-24 22:55 226 0 gusting 2 16.1
2016-Sep-24 22:50 198 0 gusting 5 16.1
2016-Sep-24 22:44 198 16.1
2016-Sep-24 22:39 010 4 gusting 7 16.7
2016-Sep-24 22:35 036 1 gusting 4 16.7
2016-Sep-24 22:29 012 2 gusting 3 17.2
2016-Sep-24 22:24 041 0 gusting 3 17.2
2016-Sep-24 22:19 008 17.2
2016-Sep-24 22:14 060 0 gusting 3 17.2
2016-Sep-24 22:09 197 0 gusting 5 17.2
2016-Sep-24 22:04 073 1 gusting 5 17.2
2016-Sep-24 21:59 071 0 gusting 3 17.2
2016-Sep-24 21:55 025 1 gusting 2 17.8
2016-Sep-24 21:49 014 17.8
2016-Sep-24 21:44 040 17.8
2016-Sep-24 21:39 044 0 gusting 5 17.2
2016-Sep-24 21:34 032 1 gusting 5 17.8
2016-Sep-24 21:29 033 0 gusting 4 17.2
2016-Sep-24 21:24 020 17.2
2016-Sep-24 21:19 020 1 gusting 5 17.2
2016-Sep-24 21:14 023 17.2
2016-Sep-24 21:09 007 17.2
2016-Sep-24 21:04 025 0 gusting 6 17.2
2016-Sep-24 20:59 032 1 gusting 6 16.7
2016-Sep-24 20:54 011 3 gusting 8 16.7
2016-Sep-24 20:49 025 16.7
2016-Sep-24 20:44 020 2 gusting 3 17.2
2016-Sep-24 20:39 028 2 gusting 3 17.2
2016-Sep-24 20:34 022 3 gusting 6 17.2
2016-Sep-24 20:29 097 0 gusting 6 17.2
2016-Sep-24 20:24 018 5 gusting 5 17.2
2016-Sep-24 20:19 207 0 gusting 6 17.8
2016-Sep-24 20:14 076 0 gusting 6 17.2
2016-Sep-24 20:09 258 17.2
2016-Sep-24 20:04 098 17.2
2016-Sep-24 19:59 025 2 gusting 6 16.7
2016-Sep-24 19:54 232 16.7
2016-Sep-24 19:49 008 3 gusting 6 16.7
2016-Sep-24 19:44 020 4 gusting 6 17.2
2016-Sep-24 19:39 035 16.7
2016-Sep-24 19:34 125 16.7
2016-Sep-24 19:29 358 0 gusting 7 16.1
2016-Sep-24 19:24 012 4 gusting 7 16.1
2016-Sep-24 19:19 010 5 gusting 5 16.1
2016-Sep-24 19:14 027 3 gusting 5 16.1
2016-Sep-24 19:09 343 2 gusting 2 15.6
2016-Sep-24 19:04 279 1 gusting 2 15.6
2016-Sep-24 18:59 279 15.0
2016-Sep-24 18:54 279 15.0
2016-Sep-24 18:49 287 3 gusting 4 15.6
2016-Sep-24 18:44 264 4 gusting 4 15.6
2016-Sep-24 18:39 239 2 gusting 4 15.6
2016-Sep-24 18:34 357 2 gusting 4 15.6
2016-Sep-24 18:29 012 0 gusting 2 15.6
2016-Sep-24 18:24 012 15.6
2016-Sep-24 18:19 012 2 gusting 3 15.6
2016-Sep-24 18:14 289 1 gusting 3 15.6
2016-Sep-24 18:09 289 2 gusting 3 15.6
2016-Sep-24 18:04 299 1 gusting 5 16.1
2016-Sep-24 17:59 213 1 gusting 8 17.2
2016-Sep-24 17:54 156 5 gusting 9 16.7
2016-Sep-24 17:49 140 1 gusting 9 16.7
2016-Sep-24 17:44 137 4 gusting 7 16.7
2016-Sep-24 17:39 158 2 gusting 7 16.7
2016-Sep-24 17:34 148 0 gusting 7 16.7
2016-Sep-24 17:29 147 0 gusting 6 16.1
2016-Sep-24 17:24 112 2 gusting 7 16.1
2016-Sep-24 17:19 141 15.6
2016-Sep-24 17:14 163 1 gusting 10 15.6
2016-Sep-24 17:09 082 15.6
2016-Sep-24 17:04 087 15.0
2016-Sep-24 16:59 079 15.0
2016-Sep-24 16:54 145 4 gusting 8 14.4
2016-Sep-24 16:49 132 0 gusting 8 14.4
2016-Sep-24 16:44 147 1 gusting 6 14.4
2016-Sep-24 16:39 160 1 gusting 7 14.4
2016-Sep-24 16:34 142 0 gusting 7 14.4
2016-Sep-24 16:29 149 2 gusting 7 14.4
2016-Sep-24 16:24 118 3 gusting 6 14.4
2016-Sep-24 16:14 072 3 gusting 8 13.9
2016-Sep-24 16:04 137 4 gusting 6 13.9
2016-Sep-24 15:59 145 0 gusting 6 13.9
2016-Sep-24 15:49 118 1 gusting 4 13.3
2016-Sep-24 15:44 120 2 gusting 5 13.3
2016-Sep-24 15:34 101 3 gusting 6 12.8
2016-Sep-24 15:24 122 2 gusting 3 12.2
2016-Sep-24 15:15 122 0 gusting 5 11.7
2016-Sep-24 15:10 127 3 gusting 5 11.7
2016-Sep-24 15:04 137 3 gusting 4 11.7
2016-Sep-24 14:59 127 0 gusting 2 11.1
2016-Sep-24 14:54 127 1 gusting 1 11.1
2016-Sep-24 14:49 127 11.1
2016-Sep-24 14:40 127 11.1
2016-Sep-24 14:35 127 11.1
2016-Sep-24 14:30 127 11.1
2016-Sep-24 14:25 127 11.1
2016-Sep-24 14:20 127 0 gusting 3 11.1
2016-Sep-24 14:15 147 11.1
2016-Sep-24 14:10 147 11.1
2016-Sep-24 14:05 147 0 gusting 1 11.1
2016-Sep-24 14:00 147 1 gusting 1 11.1
2016-Sep-24 13:55 147 11.1
2016-Sep-24 13:50 147 11.1
2016-Sep-24 13:40 147 1 gusting 3 11.1
2016-Sep-24 13:35 147 0 gusting 4 11.1
2016-Sep-24 13:30 147 1 gusting 4 11.1
2016-Sep-24 13:25 145 1 gusting 4 11.1
2016-Sep-24 13:20 145 1 gusting 5 11.1
2016-Sep-24 13:15 147 2 gusting 5 11.1
2016-Sep-24 13:10 129 4 gusting 5 11.1
2016-Sep-24 13:05 128 1 gusting 5 11.1
2016-Sep-24 13:00 128 1 gusting 2 11.1
2016-Sep-24 12:55 129 1 gusting 4 11.1
2016-Sep-24 12:50 128 0 gusting 4 11.1
2016-Sep-24 12:45 128 1 gusting 1 11.1
2016-Sep-24 12:40 128 11.1
2016-Sep-24 12:35 128 1 gusting 1 11.1
2016-Sep-24 12:30 128 11.1
2016-Sep-24 12:25 128 11.1
2016-Sep-24 12:20 128 11.1
2016-Sep-24 12:15 128 11.1
2016-Sep-24 12:10 128 11.1
2016-Sep-24 12:05 128 11.1
2016-Sep-24 12:00 128 1 gusting 4 11.7
2016-Sep-24 11:55 129 1 gusting 5 11.7
2016-Sep-24 11:50 128 2 gusting 5 11.7
2016-Sep-24 11:45 141 4 gusting 4 11.7
2016-Sep-24 11:40 151 11.7
2016-Sep-24 11:35 151 1 gusting 3 11.7
2016-Sep-24 11:30 151 2 gusting 3 11.7
2016-Sep-24 11:25 151 1 gusting 3 11.7
2016-Sep-24 11:20 171 2 gusting 3 11.7
2016-Sep-24 11:15 171 1 gusting 3 11.7
2016-Sep-24 11:10 171 1 gusting 2 11.7
2016-Sep-24 11:05 171 11.7
2016-Sep-24 11:00 171 1 gusting 2 11.7
2016-Sep-24 10:55 171 11.7
2016-Sep-24 10:50 197 1 gusting 2 11.7
2016-Sep-24 10:45 197 1 gusting 2 11.1
2016-Sep-24 10:40 197 11.1
2016-Sep-24 10:35 197 11.1
2016-Sep-24 10:30 197 11.1
2016-Sep-24 10:25 197 11.1
2016-Sep-24 10:20 197 11.1
2016-Sep-24 10:15 197 11.1
2016-Sep-24 10:10 197 11.1
2016-Sep-24 10:05 197 11.1
2016-Sep-24 10:00 197 11.1
2016-Sep-24 09:55 197 11.1
2016-Sep-24 09:50 248 11.1
2016-Sep-24 09:45 248 0 gusting 2 11.1
2016-Sep-24 09:40 218 11.1
2016-Sep-24 09:35 337 11.1
2016-Sep-24 09:30 337 1 gusting 2 11.1
2016-Sep-24 09:25 341 11.1
2016-Sep-24 09:20 337 11.1
2016-Sep-24 09:15 332 0 gusting 3 11.1
2016-Sep-24 09:10 337 11.7
2016-Sep-24 09:05 337 1 gusting 6 11.7
2016-Sep-24 09:00 262 11.7
2016-Sep-24 08:55 297 3 gusting 5 11.7
2016-Sep-24 08:50 239 0 gusting 1 11.7
2016-Sep-24 08:45 260 11.7
2016-Sep-24 08:40 256 11.7
2016-Sep-24 08:35 250 0 gusting 2 11.7
2016-Sep-24 08:30 226 2 gusting 3 11.7
2016-Sep-24 08:25 250 12.2
2016-Sep-24 08:20 065 12.2
2016-Sep-24 08:15 064 12.2
2016-Sep-24 08:10 064 1 gusting 1 12.2
2016-Sep-24 08:05 063 0 gusting 2 12.2
2016-Sep-24 08:00 064 0 gusting 2 12.2
2016-Sep-24 07:55 064 1 gusting 2 12.2
2016-Sep-24 07:50 032 0 gusting 2 12.2
2016-Sep-24 07:45 032 12.2
2016-Sep-24 07:40 032 12.8
2016-Sep-24 07:35 032 0 gusting 4 12.8
2016-Sep-24 07:30 028 1 gusting 5 12.8
2016-Sep-24 07:25 012 3 gusting 5 12.8
2016-Sep-24 07:20 014 2 gusting 3 12.8
2016-Sep-24 07:15 018 2 gusting 2 12.8
2016-Sep-24 07:10 017 0 gusting 3 12.8
2016-Sep-24 07:05 018 0 gusting 3 12.8
2016-Sep-24 07:00 018 1 gusting 3 12.8
2016-Sep-24 06:55 021 12.8
2016-Sep-24 06:50 021 12.8
2016-Sep-24 06:45 021 12.8
2016-Sep-24 06:40 021 0 gusting 0 13.3
2016-Sep-24 06:35 021 13.3
2016-Sep-24 06:30 021 13.3
2016-Sep-24 06:25 021 13.3
2016-Sep-24 06:19 021 2 gusting 5 13.3
2016-Sep-24 06:14 358 3 gusting 6 13.3
2016-Sep-24 06:09 351 2 gusting 8 13.3
2016-Sep-24 06:04 343 6 gusting 8 13.3
2016-Sep-24 05:59 332 5 gusting 6 13.3
2016-Sep-24 05:54 332 5 gusting 6 13.9
2016-Sep-24 05:49 342 6 gusting 6 13.9
2016-Sep-24 05:44 332 2 gusting 3 13.9
2016-Sep-24 05:39 332 0 gusting 6 13.9
2016-Sep-24 05:34 327 2 gusting 6 13.9
2016-Sep-24 05:29 295 3 gusting 6 13.9
2016-Sep-24 05:24 285 3 gusting 3 13.9
2016-Sep-24 05:19 285 1 gusting 2 13.9
2016-Sep-24 05:14 210 1 gusting 2 13.9
2016-Sep-24 05:09 152 13.9
2016-Sep-24 05:04 153 13.9
2016-Sep-24 04:59 152 13.9
2016-Sep-24 04:54 152 2 gusting 3 13.9
2016-Sep-24 04:49 229 1 gusting 4 13.9
2016-Sep-24 04:44 145 1 gusting 6 13.9
2016-Sep-24 04:39 121 3 gusting 7 13.9
2016-Sep-24 04:34 136 0 gusting 7 13.9
2016-Sep-24 04:29 125 6 gusting 6 13.9
2016-Sep-24 04:24 141 3 gusting 5 13.9
2016-Sep-24 04:19 151 3 gusting 5 13.9
2016-Sep-24 04:14 123 1 gusting 6 13.3
2016-Sep-24 04:09 115 1 gusting 7 13.3
2016-Sep-24 04:04 137 4 gusting 7 13.3
2016-Sep-24 03:59 143 4 gusting 6 13.3
2016-Sep-24 03:54 139 0 gusting 5 13.3
2016-Sep-24 03:49 136 13.3
2016-Sep-24 03:44 131 3 gusting 5 13.3
2016-Sep-24 03:39 116 1 gusting 4 13.9
2016-Sep-24 03:34 125 0 gusting 4 13.9
2016-Sep-24 03:29 113 1 gusting 4 13.9
2016-Sep-24 03:24 122 13.9
2016-Sep-24 03:19 116 0 gusting 5 13.9
2016-Sep-24 03:14 150 1 gusting 5 13.9
2016-Sep-24 03:09 119 13.9
2016-Sep-24 03:04 139 3 gusting 6 13.9
2016-Sep-24 02:59 136 1 gusting 5 13.9
2016-Sep-24 02:54 128 1 gusting 4 13.9
2016-Sep-24 02:49 146 13.9
2016-Sep-24 02:44 146 13.9
2016-Sep-24 02:39 146 13.9
2016-Sep-24 02:34 146 14.4
2016-Sep-24 02:29 145 14.4
2016-Sep-24 02:24 145 14.4
2016-Sep-24 02:19 146 14.4
2016-Sep-24 02:14 146 14.4
2016-Sep-24 02:09 145 15.0
2016-Sep-24 02:04 145 0 gusting 2 15.0
2016-Sep-24 01:59 147 15.0
2016-Sep-24 01:54 147 15.0
2016-Sep-24 01:49 147 15.6
2016-Sep-24 01:44 147 15.6
2016-Sep-24 01:39 147 15.6
2016-Sep-24 01:34 147 15.6
2016-Sep-24 01:29 083 15.6
2016-Sep-24 01:24 083 15.6
2016-Sep-24 01:19 083 15.6
2016-Sep-24 01:14 104 1 gusting 2 15.6
2016-Sep-24 01:09 104 15.6
2016-Sep-24 01:04 104 15.6
2016-Sep-24 00:59 104 15.6
2016-Sep-24 00:54 104 15.6
2016-Sep-24 00:49 104 15.6
2016-Sep-24 00:44 104 15.6
2016-Sep-24 00:39 104 0 gusting 3 15.6
2016-Sep-24 00:34 104 15.6
2016-Sep-24 00:29 129 15.6
2016-Sep-24 00:24 129 15.6
2016-Sep-24 00:14 153 15.6
2016-Sep-24 00:09 160 1 gusting 6 15.6
2016-Sep-24 00:00 118 3 gusting 10 15.6
2016-Sep-23 23:54 116 5 gusting 13 15.6
2016-Sep-23 23:45 120 4 gusting 12 15.6
2016-Sep-23 23:39 083 5 gusting 10 15.6
2016-Sep-23 23:34 097 1 gusting 10 15.6
2016-Sep-23 23:29 102 6 gusting 12 15.6
2016-Sep-23 23:19 080 1 gusting 13 15.6
2016-Sep-23 23:09 131 13 gusting 14 15.6
2016-Sep-23 23:04 095 6 gusting 14 15.6
2016-Sep-23 22:55 135 8 gusting 15 15.6
2016-Sep-23 22:50 120 7 gusting 15 15.6
2016-Sep-23 22:45 143 6 gusting 16 15.6
2016-Sep-23 22:40 125 2 gusting 16 15.6
2016-Sep-23 22:35 114 0 gusting 11 15.6
2016-Sep-23 22:30 125 6 gusting 17 15.6
2016-Sep-23 22:25 073 10 gusting 17 15.6
2016-Sep-23 22:20 124 3 gusting 15 15.6
2016-Sep-23 22:15 091 3 gusting 13 15.6
2016-Sep-23 22:10 120 6 gusting 14 15.6
2016-Sep-23 22:05 112 2 gusting 19 15.6
2016-Sep-23 22:00 116 7 gusting 19 15.6